MPEC 2008-E117: 2008 EB85

The following Minor Planet Electronic Circular may be linked-to from your own Web pages, but must not otherwise be redistributed electronically.


Read MPEC 2008-E116 Read MPEC 2008-E118


M.P.E.C. 2008-E117                               Issued 2008 Mar. 15, 11:33 UT

     The Minor Planet Electronic Circulars contain information on unusual
         minor planets and routine data on comets.  They are published
   on behalf of Commission 20 of the International Astronomical Union by the
          Minor Planet Center, Smithsonian Astrophysical Observatory,
                          Cambridge, MA 02138, U.S.A.

             Prepared using the Tamkin Foundation Computer Network

                              MPC@CFA.HARVARD.EDU
          URL http://www.cfa.harvard.edu/iau/mpc.html  ISSN 1523-6714

                                   2008 EB85

Observations:
     K08E85B* C2008 03 13.26644 10 17 05.38 +08 16 06.8          21.4 V EE117G96
     K08E85B  C2008 03 13.27322 10 17 03.40 +08 16 41.2          21.4 V EE117G96
     K08E85B  C2008 03 13.27983 10 17 01.46 +08 17 16.5          20.6 V EE117G96
     K08E85B  C2008 03 13.28647 10 16 59.44 +08 17 49.6          21.1 V EE117G96
     K08E85B  C2008 03 13.29619 10 16 56.57 +08 18 39.7          20.6 V EE117G96
     K08E85B  C2008 03 13.29708 10 16 56.31 +08 18 44.3          20.5 V EE117G96
     K08E85B  C2008 03 13.29796 10 16 56.03 +08 18 49.3          20.9 V EE117G96
     K08E85B  C2008 03 13.29884 10 16 55.81 +08 18 53.0          21.0 V EE117G96
     K08E85B  C2008 03 13.40366 10 16 24.83 +08 27 53.9                 EE117G96
     K08E85B  C2008 03 13.40455 10 16 24.64 +08 27 57.9          21.2 V EE117G96
     K08E85B  C2008 03 13.40543 10 16 24.37 +08 28 02.4          21.3 V EE117G96
     K08E85B  C2008 03 13.40631 10 16 24.06 +08 28 08.0          20.9 V EE117G96
     K08E85B  C2008 03 14.26630 10 12 18.28 +09 44 49.6          20.4 V EE117G96
     K08E85B  C2008 03 14.27359 10 12 15.94 +09 45 30.0          21.4 V EE117G96
     K08E85B  C2008 03 14.28097 10 12 13.57 +09 46 11.1          20.7 V EE117G96
     K08E85B  C2008 03 14.28831 10 12 11.30 +09 46 50.7          21.2 V EE117G96
     K08E85B  C2008 03 14.28947 10 12 10.94 +09 46 57.2          20.9 V EE117G96
     K08E85B  C2008 03 14.29012 10 12 10.69 +09 47 00.8          20.5 V EE117G96
     K08E85B  C2008 03 14.29079 10 12 10.51 +09 47 04.5          20.9 V EE117G96
     K08E85B  C2008 03 14.29144 10 12 10.33 +09 47 08.0          19.8 V EE117G96
     K08E85B  C2008 03 15.16251 10 07 45.16 +11 09 33.3          21.6 V EE117G96
     K08E85B  C2008 03 15.16316 10 07 44.95 +11 09 36.7          21.6 V EE117G96

Observer details:
G96 Mt. Lemmon Survey.  Observers R. E. Hill, A. R. Gibbs.  Measurers
    E. C. Beshore, A. Boattini, G. J. Garradd, A. R. Gibbs, A. D. Grauer,
    R. E. Hill, R. A. Kowalski, S. M. Larson, R. H. McNaught.  1.5-m reflector
    + CCD.

Orbital elements:
2008 EB85                                                Earth MOID = 0.0431 AU
Epoch 2008 May 14.0 TT = JDT 2454600.5                  MPC
M 349.87225              (2000.0)            P               Q
n   0.69517467     Peri.  104.59986     +0.11467669     +0.99304751
a   1.2620409      Node   171.84502     -0.96822799     +0.11771346
e   0.4538530      Incl.   10.79524     -0.22222469     -0.00042331
P   1.42           H   23.7           G   0.15           U   9
Residuals in seconds of arc
080313 G96  0.3-  0.0     080313 G96  0.5-  0.4+    080314 G96  0.3+  0.1-
080313 G96  0.2+  0.5-    080313 G96  0.5+  0.2-    080314 G96  0.3-  0.1-
080313 G96  0.5+  0.8+    080313 G96  0.3+  0.3-    080314 G96  0.2+  0.1-
080313 G96  0.2-  0.3-    080313 G96  0.5-  0.8+    080314 G96  0.6+  0.1-
080313 G96  0.0   0.2-    080314 G96  0.1+  0.2-    080315 G96  0.1-  0.2+
080313 G96  0.0   0.2-    080314 G96  0.3-  0.1+    080315 G96  0.1+  0.2-
080313 G96  0.2-  0.3+    080314 G96  0.7-  0.6+
080313 G96  0.4+  0.5-    080314 G96  0.2+  0.2-

Ephemeris:
2008 EB85                a,e,i = 1.26, 0.45, 11                  q = 0.6891
Date    TT    R. A. (2000) Decl.     Delta      r     Elong.  Phase     V
2008 03 15    10 08.58   +10 54.1    0.153    1.135   155.6    21.2    20.9
2008 03 16    10 03.17   +12 33.7    0.147    1.128   152.8    23.8    20.9
2008 03 17    09 57.34   +14 19.7    0.142    1.120   149.8    26.6    20.9
2008 03 18    09 51.06   +16 12.5    0.137    1.112   146.6    29.5    20.9
2008 03 19    09 44.28   +18 12.1    0.133    1.105   143.4    32.5    20.9
2008 03 20    09 36.94   +20 18.3    0.128    1.097   139.9    35.8    20.9
2008 03 21    09 28.99   +22 30.9    0.124    1.089   136.3    39.2    20.9
2008 03 22    09 20.35   +24 49.4    0.121    1.082   132.5    42.8    20.9
2008 03 23    09 10.95   +27 13.2    0.118    1.074   128.6    46.5    21.0
2008 03 24    09 00.72   +29 41.3    0.115    1.066   124.6    50.4    21.0
2008 03 25    08 49.56   +32 12.3    0.113    1.059   120.4    54.4    21.1
2008 03 26    08 37.40   +34 44.7    0.111    1.051   116.1    58.5    21.1
2008 03 27    08 24.14   +37 16.4    0.109    1.043   111.7    62.7    21.2
2008 03 28    08 09.71   +39 45.3    0.108    1.035   107.3    67.0    21.3
2008 03 29    07 54.06   +42 08.9    0.107    1.028   102.8    71.4    21.4
2008 03 30    07 37.15   +44 24.6    0.107    1.020    98.3    75.7    21.5
2008 03 31    07 19.02   +46 30.0    0.107    1.012    93.9    80.1    21.7
2008 04 01    06 59.72   +48 22.8    0.108    1.004    89.5    84.4    21.8
2008 04 02    06 39.42   +50 00.9    0.109    0.996    85.2    88.6    22.0
2008 04 03    06 18.33   +51 23.0    0.111    0.989    80.9    92.7    22.2
2008 04 04    05 56.76   +52 28.2    0.113    0.981    76.9    96.7    22.4

Timothy B. Spahr             (C) Copyright 2008 MPC           M.P.E.C. 2008-E117

Read MPEC 2008-E116 Read MPEC 2008-E118


Our Web policy. Index to the CBAT/MPC/ICQ pages.

MPC

Valid HTML 4.01!